World > North America > United States > Missouri

Hallsville, Missouri Regional Weather

Lat: 39.12N, Lon: 92.22W
Wx Zone: MOZ041Web Search
Hallsville Weather Warning NWS WEATHER ALERT FOR THE HALLSVILLE, MO AREA - Issued: 549 AM CDT Sun May 9 2021 Hallsville Weather Warning  

Helpful Tip: Abbreviated, 7 Day, 14 Day Forecasts. There is a weather forecast for every taste.

Feedback


°F Click to change Hallsville hourly weather to Imperial units.Click to change Hallsville hourly weather to Metric units. °C
Hallsville Weather Map
UTC Time: 5/9/2021, 14:01
Your Time:

Hallsville, MO Regional Weather

Expires:202105091500;;841231
ASUS43 KLSX 091357
RWRMO 

WEATHER SUMMARY FOR MISSOURI
NATIONAL WEATHER SERVICE SPRINGFIELD MO
900 AM CDT SUN MAY 09 2021

NOTE: "FAIR" INDICATES FEW OR NO CLOUDS BELOW 12,000 FEET WITH NO
       SIGNIFICANT WEATHER AND/OR OBSTRUCTIONS TO VISIBILITY.
       CURRENT SKY AND/OR WEATHER CONDITIONS ARE NOT AVAILABLE FOR
       CHILLICOTHE AND FARMINGTON.


MOZ032>034-039>042-045>050-055>058-069>072-091500-
...CENTRAL MISSOURI...  
  
CITY           SKY/WX    TMP DP  RH WIND       PRES   REMARKS
COLUMBIA       NOT AVBL                                               
JEFFERSON CITY CLOUDY    50  44  80 NW10      29.79R                  
ROLLA          LGT RAIN  55  55 100 NW16G26   29.66R                  
SEDALIA        CLOUDY    48  32  53 N17       29.82R                  
WHITEMAN AFB   CLOUDY    48  45  87 NW13      29.80R                  
WARRENSBURG    CLOUDY    46  43  87 NW13G18   29.85R                  
               
$$

SKY/WX - Weather  TMP - Temperature  DP - Dew Point  RH - Relative Humidity
WIND - Wind Direction/Speed PRES - Barometric Pressure VSB - Visibility
WCI - Wind Chill Index E13G22 Wind - East Wind 13 mph/Gusts of 22 mph